EW8925 Weather Reports


time (UTC)temp
C
wind
direction
speed
KPH
gust
KPH
rain 1hr
cm
rain 24hr
cm
rain mn
cm
humidity
%
barometer
mb
20260504100116 1 0.0 0.0 0.00 0.00 0.00 83 1004.4
20260504081543 3 0.0 0.0 0.00 0.00 0.00 80 1004.6
20260504044534 6 0.0 0.0 0.00 0.00 0.00 68 1005.4
20260504043038 6 0.0 0.0 0.00 0.00 0.00 67 1005.3
20260504041525 7 0.0 0.0 0.00 0.00 0.00 65 1005.3
20260504040025 7 0.0 0.0 0.00 0.00 0.00 64 1005.3
20260504034524 8 0.0 0.0 0.00 0.00 0.00 63 1005.3
20260504033023 8 0.0 0.0 0.00 0.00 0.00 62 1005.0
20260504031523 8 0.0 0.0 0.00 0.00 0.00 61 1005.2
20260504030022 9 0.0 0.0 0.00 0.00 0.00 60 1005.0
20260504024521 10 0.0 0.0 0.00 0.00 0.00 60 1004.9
20260504023021 11 0.0 0.0 0.00 0.00 0.00 55 1004.9
20260504021519 13 0.0 0.0 0.00 0.00 0.00 47 1004.9
20260504020021 16 0.0 0.0 0.00 0.00 0.00 38 1004.9
20260504014518 17 0.0 0.0 0.00 0.00 0.00 32 1005.0
20260504013020 18 0.0 0.0 0.00 0.00 0.00 31 1004.9
20260504011515 17 0.0 0.0 0.00 0.00 0.00 31 1005.1
20260504010014 18 0.0 0.0 0.00 0.00 0.00 30 1005.2
20260504004518 18 0.0 0.0 0.00 0.00 0.00 30 1005.4
20260504003011 18 0.0 0.0 0.00 0.00 0.00 29 1005.5
20260504001512 18 0.0 0.0 0.00 0.00 0.00 30 1005.5
20260504000007 18 0.0 0.0 0.00 0.00 0.00 30 1005.8
20260503234505 18 0.0 0.0 0.00 0.00 0.00 29 1005.9
20260503233003 18 0.0 0.0 0.00 0.00 0.00 30 1006.1
20260503231501 18 0.0 0.0 0.00 0.00 0.00 32 1006.1
20260503230117 17 0.0 0.0 0.00 0.00 0.00 32 1006.3
20260503224603 17 0.0 0.0 0.00 0.00 0.00 31 1006.4
20260503223056 17 0.0 0.0 0.00 0.00 0.00 31 1006.7
20260503221601 17 0.0 0.0 0.00 0.00 0.00 31 1006.6
20260503220055 17 0.0 0.0 0.00 0.00 0.00 30 1006.7
20260503214552 17 0.0 0.0 0.00 0.00 0.00 32 1007.0
20260503213100 16 0.0 0.0 0.00 0.00 0.00 37 1007.1
20260503211609 15 0.0 0.0 0.00 0.00 0.00 40 1007.2
20260503210050 14 0.0 0.0 0.00 0.00 0.00 47 1007.2
20260503204550 13 0.0 0.0 0.00 0.00 0.00 42 1007.3
20260503203052 14 0.0 0.0 0.00 0.00 0.00 42 1008.4
20260503201548 16 0.0 0.0 0.00 0.00 0.00 37 1007.7
20260503200057 16 0.0 0.0 0.00 0.00 0.00 38 1007.3
20260503194549 13 0.0 0.0 0.00 0.00 0.00 51 1007.3
20260503193057 14 0.0 0.0 0.00 0.00 0.00 48 1007.5
20260503191549 16 0.0 0.0 0.00 0.00 0.00 39 1007.4
20260503190047 17 0.0 0.0 0.00 0.00 0.00 37 1008.0
20260503184551 17 0.0 0.0 0.00 0.00 0.00 34 1008.4
20260503183041 17 0.0 0.0 0.00 0.00 0.00 34 1008.7
20260503181543 17 0.0 0.0 0.00 0.00 0.00 35 1008.8
20260503180047 17 0.0 0.0 0.00 0.00 0.00 35 1009.0
20260503174542 16 0.0 0.0 0.00 0.00 0.00 36 1009.2
20260503173035 16 0.0 0.0 0.00 0.00 0.00 39 1009.5
20260503171522 15 0.0 0.0 0.00 0.00 0.00 40 1009.7